This demonstration page uses our WeatherBlox Daily Observations layout. Learn more.

Left ArrowRight Arrow

Hourly Observations for May 15, 2020

Temp ( °F °C ) Dew Point ( °F °C ) Humidity (%) Winds ( mph kmh ) Pressure ( in mb ) Visibility ( mi km ) Precip ( " mm )
12:51 am 00:51 Clear 63 17.2 27 -2.8 26 26 NNW 10 17 29.77 1008 10 16.0934 0 0
1:51 am 01:51 Clear 65 18.3 30 -1.1 27 27 N 3 6 29.76 1008 10 16.0934 0 0
2:51 am 02:51 Clear 58 14.4 27 -2.8 31 31 NE 3 6 29.78 1008 10 16.0934 0 0
3:51 am 03:51 Clear 55 12.8 26 -3.3 33 33 SE 5 7 29.79 1009 10 16.0934 0 0
4:51 am 04:51 Clear 55 12.8 26 -3.3 33 33 E 5 7 29.8 1009 10 16.0934 0 0
5:51 am 05:51 Sunny 56 13.3 27 -2.8 33 33 ESE 5 7 29.81 1010 10 16.0934 0 0
6:51 am 06:51 Sunny 65 18.3 29 -1.7 26 26 E 3 6 29.81 1009 10 16.0934 0 0
7:51 am 07:51 Sunny 69 20.6 30 -1.1 23 23 S 6 9 29.81 1010 10 16.0934 0 0
8:51 am 08:51 Sunny 75 23.9 31 -0.6 20 20 VRB 5 7 29.8 1009 10 16.0934 0 0
9:51 am 09:51 Sunny 79 26.1 33 0.6 19 19 VRB 5 7 29.78 1008 10 16.0934 0 0
10:51 am 10:51 Sunny 83 28.3 33 0.6 17 17 undefined N/A 29.78 1008 10 16.0934 0 0
11:51 am 11:51 Sunny 85 29.4 32 0 15 15 W 9 15 29.76 1008 10 16.0934 0 0
12:51 pm 12:51 Sunny 87 30.6 33 0.6 14 14 WSW 10 17 29.74 1007 10 16.0934 0 0
1:51 pm 13:51 Sunny 89 31.7 33 0.6 14 14 WSW 8 13 29.71 1006 10 16.0934 0 0
2:51 pm 14:51 Sunny 90 32.2 32 0 13 13 WNW 8 13 29.69 1006 10 16.0934 0 0
3:51 pm 15:51 Sunny 90 32.2 32 0 13 13 undefined N/A 29.67 1005 10 16.0934 0 0
4:51 pm 16:51 Sunny 91 32.8 29 -1.7 11 11 WNW 17 28 29.66 1004 10 16.0934 0 0
5:51 pm 17:51 Sunny 88 31.1 31 -0.6 13 13 NNW 20 31 29.66 1004 10 16.0934 0 0
6:51 pm 18:51 Sunny 85 29.4 31 -0.6 14 14 NW 17 28 29.67 1005 10 16.0934 0 0
7:51 pm 19:51 Clear 81 27.2 29 -1.7 15 15 NW 15 24 29.68 1005 10 16.0934 0 0
8:51 pm 20:51 Clear 78 25.6 28 -2.2 16 16 NW 13 20 29.7 1006 10 16.0934 0 0
9:51 pm 21:51 Clear 73 22.8 29 -1.7 19 19 NW 12 19 29.72 1006 10 16.0934 0 0
10:51 pm 22:51 Clear 70 21.1 28 -2.2 21 21 WNW 8 13 29.73 1007 10 16.0934 0 0
11:51 pm 23:51 Clear 70 21.1 28 -2.2 21 21 NW 6 9 29.72 1007 10 16.0934 0 0

Powered by AerisWeather